This is the latest recevied weather packets stored in our database for station/object LU3HGB-WX. If no packets are shown the sender has not sent any weather packets the latest 10 day(s).
| Time | Temp. | Humidity | Pressure | Rain* | Wind** | Luminosity | Snow |
|---|---|---|---|---|---|---|---|
| 1788361359 | 21.11° C | 44% | 1014 hPa | 0 mm | - | 847 W/m² | - |
| 1788361060 | 21.11° C | 47% | 1014 hPa | 0 mm | - | 835 W/m² | - |
| 1788360759 | 21.11° C | 44% | 1014 hPa | 0 mm | - | 826 W/m² | - |
| 1788360460 | 21.11° C | 43% | 1014 hPa | 0 mm | - | 813 W/m² | - |
| 1788360162 | 20.56° C | 46% | 1014 hPa | 0 mm | - | 806 W/m² | - |
| 1788359859 | 20.56° C | 46% | 1014 hPa | 0 mm | - | 793 W/m² | - |
| 1788359560 | 20.56° C | 45% | 1014 hPa | 0 mm | - | 779 W/m² | - |
| 1788359260 | 20.56° C | 49% | 1014 hPa | 0 mm | - | 764 W/m² | - |
| 1788358960 | 20° C | 47% | 1014 hPa | 0 mm | - | 752 W/m² | - |
| 1788358659 | 20° C | 48% | 1015 hPa | 0 mm | - | 736 W/m² | - |
| 1788358360 | 19.44° C | 48% | 1015 hPa | 0 mm | - | 722 W/m² | - |
| 1788358063 | 19.44° C | 50% | 1015 hPa | 0 mm | - | 706 W/m² | - |
| 1788357760 | 19.44° C | 51% | 1015 hPa | 0 mm | - | 689 W/m² | - |
| 1788357460 | 18.89° C | 51% | 1015 hPa | 0 mm | - | 669 W/m² | - |
| 1788357160 | 18.89° C | 52% | 1015 hPa | 0 mm | - | 652 W/m² | - |
| 1788356862 | 18.33° C | 52% | 1015 hPa | 0 mm | - | 640 W/m² | - |
| 1788356560 | 18.33° C | 50% | 1015 hPa | 0 mm | - | 621 W/m² | - |
| 1788356259 | 18.33° C | 51% | 1015 hPa | 0 mm | - | 602 W/m² | - |
| 1788355959 | 18.33° C | 53% | 1015 hPa | 0 mm | - | 584 W/m² | - |
| 1788355660 | 18.33° C | 53% | 1015 hPa | 0 mm | - | 562 W/m² | - |
| 1788355360 | 17.78° C | 53% | 1015 hPa | 0 mm | - | 543 W/m² | - |
| 1788355060 | 17.78° C | 54% | 1015 hPa | 0 mm | - | 526 W/m² | - |
| 1788354760 | 17.22° C | 54% | 1016 hPa | 0 mm | - | 507 W/m² | - |
| 1788354460 | 17.22° C | 55% | 1016 hPa | 0 mm | - | 486 W/m² | - |
| 1788354160 | 16.67° C | 55% | 1016 hPa | 0 mm | - | 465 W/m² | - |
* Rain latest hour (hover to see other rain measurements)
** Current wind speed in m/s (hover to see current wind gust speed)